sat.trackr.live / text

‹ back to catalog

TRANSPORTER-15 OBJECT L

NORAD 66676 · 2025-276L

PAYLOAD ACTIVE UNKNOWN

§ Identity

Operator
Country
TBD
Launch date
2025-11-28
Launch site
AFWTR
Launch vehicle
Mass (kg)
RCS (m²)

External: N2YO · Heavens-Above · Gunter

§ Orbital elements

Epoch: 2026-09-20T22:07:26.577696Z

Period
94.75 min
Inclination
97.4094°
Eccentricity
0.0006750
Mean motion
15.19786066 rev/d
Perigee alt
501.8 km
Apogee alt
511.1 km
Semi-major
6,884.6 km
B*
1.3412e-4
RAAN
335.4632°
Arg perigee
43.4738°
Mean anomaly
316.7028°
Rev number
4,494

§ Raw data

TRANSPORTER-15 OBJECT L1 66676U 25276L   26263.92183539  .00002804  00000+0  13412-3 0  99992 66676  97.4094 335.4632 0006750  43.4738 316.7028 15.19786066 44946

JSON: /api/v1/satellites/66676 · /tle

For live sub-satellite position, see the globe view (requires WebGL).

§ Visibility from observer

Set your observer location to see the next 7 days of passes ≥ 10°. The values pass through the URL so the page stays shareable.

No JS? Fill the form by hand. The geolocation button needs JavaScript.